Current weather by "City, St" or "zip code"  
 

Current Conditions: Lake Charles Regional Airport, LA

Fair


76.0 F

Last Updated on Sep 18 2020, 10:53 am CDT
Humidity: 62%
Wind Speed: NE 13.8 mph
Barometer 30.00 in
Dewpoint: 62.1 F
Visibility: 10.00 mi
Precip: --
Heat Index: NA
Wind Chill: NA
Current conditions at:

Lake Charles Regional Airport, LA (KLCH)

Lat: 30.12556 Lon: 93.22767

Local Radar Image active severe weather and emergency alerts image image weather storm and storm spotter reports image weather observation monitoring service image
Local
Radar
Active
Alerts
Storm Reports Obs
Monitoring

Sign-up For Email & Text Message Weather Alert Notification Services



Advertise Here

Observation History for Lake Charles Regional Airport, LA


Time Wind
(mph)
Vis
(mi)
Weather Precip (in) Temperature (F) Relative
Humidity
Wind
Chill
(F)
Heat
Index
(F)
Pressure
Air Dwpt altimeter
(in)
sea level
(mb)
Rmks
10:53 am CDT NE 13.8 10.00 Fair -- 76.0 62.1 62% NA NA 30.00 1016.7
9:53 am CDT NE 13.8 10.00 Fair -- 74.0 62.1 67% NA NA 29.99 1016.4
8:53 am CDT NE 16.1 G 21.9 10.00 Fair -- 73.0 62.1 69% NA NA 29.97 1015.6
7:53 am CDT NE 11.5 10.00 Fair -- 73.0 62.1 69% NA NA 29.95 1014.9
6:53 am CDT NE 11.5 10.00 Fair -- 73.0 64.0 74% NA NA 29.94 1014.5
5:53 am CDT NE 9.2 10.00 Fair -- 74.0 66.9 79% NA NA 29.93 1014.2
4:53 am CDT NE 8.1 10.00 Fair -- 75.0 66.9 76% NA NA 29.93 1014.1
3:53 am CDT NE 11.5 10.00 Fair -- 76.0 66.0 72% NA NA 29.92 1013.9
2:53 am CDT NE 15.0 10.00 Fair -- 78.0 69.1 74% NA NA 29.92 1014.0
1:53 am CDT NE 12.7 10.00 Fair -- 78.0 71.1 79% NA NA 29.92 1014.0
12:53 am CDT NE 9.2 10.00 Fair -- 79.0 72.0 79% NA NA 29.93 1014.2
11:53 pm CDT NE 10.4 10.00 Fair -- 79.0 72.0 79% NA NA 29.94 1014.4
10:53 pm CDT N 8.1 10.00 Fair -- 80.0 72.0 76% NA 84 29.93 1014.3
9:53 pm CDT NE 8.1 10.00 Fair -- 81.0 71.1 72% NA 85 29.92 1014.0
8:53 pm CDT NE 8.1 10.00 Fair -- 81.0 71.1 72% NA 85 29.91 1013.4
7:53 pm CDT NE 8.1 10.00 Fair -- 81.0 71.1 72% NA 85 29.88 1012.6
6:53 pm CDT NE 9.2 10.00 Fair -- 83.0 71.1 67% NA 88 29.87 1012.3
5:53 pm CDT NE 10.4 10.00 Partly Cloudy -- 85.0 70.0 61% NA 90 29.87 1012.1
4:53 pm CDT E 6.9 10.00 A Few Clouds -- 86.0 69.1 57% NA 90 29.87 1012.1
3:53 pm CDT E 9.2 10.00 Partly Cloudy -- 87.0 69.1 55% NA 91 29.88 1012.6
2:53 pm CDT NE 5.8 10.00 Mostly Cloudy -- 87.0 69.1 55% NA 91 29.89 1013.0
1:53 pm CDT NE 4.6 10.00 Mostly Cloudy -- 86.0 68.0 55% NA 89 29.91 1013.4
12:53 pm CDT N 0.0 10.00 A Few Clouds -- 86.0 69.1 57% NA 90 29.92 1013.9
11:53 am CDT NE 8.1 10.00 Fair -- 84.0 69.1 61% NA 88 29.94 1014.6

Regional Weather Observation


Lake Charles Regional Airport, LA (KLCH)

Fair
76.0 F

Chenault Airpark, LA (KCWF)

Clear
75.0 F

Orange, Orange County Airport, TX (KORG)

Fair
78.0 F

De Ridder, Beauregard Parish Airport, LA (KDRI)

Fair
77.0 F

Oakdale, Allen Parish Airport, LA (KACP)

Fair
73.0 F

Beaumont Municipal Airport, TX (KBMT)

Fair
81.0 F